Location: Oberstdorf
(47.4188°N, 10.2969°E)
Time: 00:57:33
(UTC+01:00)

Tiangong 1 - Visible Passes

Search period start: 25 November 2017 00:00
Search period end: 05 December 2017 00:00
Orbit: 283 x 307 km, 42.8° (Epoch: 24 November)

Date Brightness Start Highest point End Pass type
(mag) Time Alt. Az. Time Alt. Az. Time Alt. Az.
26 Nov 3.3 17:55:19 10° SSE 17:55:46 10° SSE 17:56:11 10° SE visible
27 Nov 2.8 18:00:04 10° SSW 18:01:44 15° SSE 18:02:13 15° SSE visible
28 Nov 2.4 18:05:33 10° SW 18:07:37 21° SSE 18:08:00 20° SSE visible
29 Nov 2.1 18:11:09 10° SW 18:13:23 26° S 18:13:37 25° SSE visible
30 Nov 2.1 18:16:46 10° WSW 18:19:04 28° S 18:19:08 28° S visible
01 Dec 2.2 18:22:19 10° WSW 18:24:32 27° S 18:24:32 27° S visible
02 Dec 2.6 18:27:50 10° WSW 18:29:52 23° SSW 18:29:52 23° SSW visible
03 Dec 2.4 16:58:38 10° WSW 17:00:56 28° S 17:03:14 10° ESE visible
03 Dec 3.1 18:33:22 10° WSW 18:35:08 17° SSW 18:35:08 17° SSW visible
04 Dec 2.5 17:03:49 10° WSW 17:06:04 26° S 17:08:18 10° SE visible
04 Dec 3.6 18:39:05 10° SW 18:40:14 12° SSW 18:40:24 12° SSW visible
